Orbital Elements at Epoch 2459000.5 (2020-May-31.0) TDB
Reference: JPL 16 (heliocentric ecliptic J2000)
Element | Value | Uncertainty (1-sigma) | Units |
e | .2149434713612691 | 1.1775e-07 | |
a | 2.532172763576423 | 1.4527e-08 | au |
q | 1.987898759686848 | 2.9963e-07 | au |
i | 9.625758912956453 | 7.185e-06 | deg |
node | 261.1874485678441 | 2.6629e-05 | deg |
peri | 158.6454992632615 | 2.9248e-05 | deg |
M | 141.7292780477748 | 9.5296e-06 | deg |
tp | 2458421.077306435312 (2018-Oct-29.57730644) | 3.7352e-05 | TDB |
period | 1471.764850258918 4.03 | 1.2666e-05 3.468e-08 | d yr |
n | .2446042925516719 | 2.105e-09 | deg/d |
Q | 3.076446767465997 | 1.765e-08 | au |
|
| | Orbit Determination Parameters
Additional Information
|